Погода в Торопеце

Погода в Торопеце : погода сейчас, прогноз погоды и архив. Всё, что Вы хотите узнать о погоде в Торопеце!

Поиск расширенной информации на нашем сайте:

Другие новости

Новости СМИ2

Главная страница сайта

Новости сайта

03.07.2017

Напоминаем, что на нашем специализированном сайте Метеоцентр.Азия вы можете получить высокодетализированные автоматические прогнозы погоды по пунктам России, СНГ и мира в авиационном формате (включающие направление и скорость ветра, видимость, явления погоды, количество и форму облачности, нижнюю и верхнюю границу облачности).


Погода в Торопеце - сегодня

Время (UTC), дата Ветер
(°,м/с) 
Видим.   Явления Облачность Т
(°С)
Тd
(°С)
f(%) Тe
(°С)
Pmin
(гПа)
dP
(гПа)
Po
(мм)
O2
(г/м3)
Тmin Tmax R s Состояние
почвы
09 20.01.18 120 (ЮВ) 4000 м  слаб. ливневой снег  9/9 600 м кучево-дожд. 
[Cb cap]
-6.1 -8.1 86 -8  1008.4  0.2  738  305           
12 20.01.18 080 (В) 4000 м  слаб. ливневой снег  10/10 600 м кучево-дожд. 
[Cb cap]
-6.3 -7.9 88 -8  1008.1  -0.3  738  305           
15 20.01.18 100 (В) 20000 м  {ливн. осадки}  10/10 600 м кучево-дожд. 
[Cb cap]
-6.4 -8 88 -6  1008.4  0.3  738  305      0.5     
18 20.01.18 100 (В) 4000 м  слаб. ливневой снег  10/10 600 м кучево-дожд. 
[Cb cap]
-7 -8.5 89 -7  1008.6  0.1  739  306    -5.9  0.4     
21 20.01.18 100 (В) 4000 м  слаб. ливневой снег  10/10 600 м кучево-дожд. 
[Cb cap]
-7.9 -9.3 90 -8  1008.8  0.1  739  307           
00 21.01.18 080 (В) 4000 м  слаб. ливневой снег  10/10 600 м кучево-дожд. 
[Cb cap]
-8.4 -9.7 90 -8  1009  0.2  739  308           
03 21.01.18 130 (ЮВ) 4000 м  слаб. ливневой снег  10/10 600 м кучево-дожд. 
[Cb cap]
-9.2 -10 94 -9  1009.4  0.3  739  309  -9.8    0.7     
06 21.01.18 010 (С) 4000 м  в посл. час ливневой снег  9/9 600 м кучево-дожд. 
[Cb cap]
-10.7 -11.7 92 -11  1010.4  0.9  740  311  -10.7    0.7  равномерный
сухой снег
100% 
09 21.01.18 тихо ()   20000 м  {ливн. осадки}  9/9 600 м кучево-дожд. 
[Cb cap]
-9.2 -10.6 90 -9  1011.2  0.9  740  310           
12 21.01.18 320 (СЗ) 20000 м    6/4 600 м верхняя 
[Sc|Ci fib]
-6.7 -9.2 82 -6  1011.4  0.4  741  307           
15 21.01.18 250 (З) 20000 м    4/4 600 м 
[Sc]
-8.8 -9.7 93 -9  1013.3  1.6  742  310      0.2     
18 21.01.18 210 (ЮЗ) 20000 м    6/6 600 м 
[Sc]
-8.7 -9.5 94 -8  1013.4  0.1  742  310    -5.4       
21 21.01.18 260 (З) 20000 м    6/6 600 м 
[Sc]
-7 -7.8 94 -7  1013.6  0.3  742  308           
00 22.01.18 300 (СЗ) 20000 м    9/9 600 м кучево-дожд. 
[Cb cap]
-7.6 -9.7 85 -9  1014.4  0.7  743  309           
03 22.01.18 280 (З) 20000 м  {ливн. осадки}  6/6 600 м кучево-дожд. 
[Cb cap]
-10.6 -11.7 92 -10  1015.7  743  313  -10.7    0.2     
06 22.01.18 180 (Ю) 10 км  {ливн. осадки}  10/5 600 м верхняя 
[Sc|Ci fib]
-12.1 -12.9 94 -12  1016.2  0.4  744  315  -12.9    0.2  равномерный
сухой снег
100% 
09 22.01.18 240 (ЮЗ) 10 км    10/8 600 м верхняя 
[Sc|Ci sp]
-7.9 -9.1 91 -8  1016.6  0.8  744  310           
12 22.01.18 250 (З) 20000 м    9/9 600 м 
[Sc]
-5.9 -8 85 -8  1017.6  1.1  745  308           
15 22.01.18 200 (Ю) 20000 м    9/9 600 м 
[Sc]
-6.3 -7.4 92 -6  1018.7  1.1  746  308           
18 22.01.18 210 (ЮЗ) 20000 м    9/9 600 м 
[Sc]
-5.7 -6.9 91 -8  1019.5  0.8  747  308    -5.7       
21 22.01.18 200 (Ю) 20000 м    4/4 600 м кучево-дожд. 
[Cb cap]
-8 -9.1 92 -10  1020.6  0.9  747  311           
00 23.01.18 180 (Ю) 10 км    9/9 600 м кучево-дожд. 
[Cb cap]
-8.7 -9.6 93 -10  1021.4  0.7  748  312           
03 23.01.18 190 (Ю) 0500 м  ливневой снег  10/10 600 м кучево-дожд. 
[Cb cap]
-8.5 -9.4 93 -8  1022.1  0.6  748  312  -9.1       
06 23.01.18 200 (Ю) 4000 м  слаб. ливневой снег  10/10 600 м кучево-дожд. 
[Cb cap]
-8.9 -9.9 92 -11  1023.4  1.2  749  313  -9.1    10  равномерный
сухой снег
100% 
09 23.01.18 220 (ЮЗ) 20000 м  {ливн. осадки}  9/9 600 м 
[Sc]
-7.3 -8.5 91 -7  1024.9  1.6  750  312           
Время (UTC), дата Ветер
(°,м/с) 
Видим.   Явления Облачность Т
(°С)
Тd
(°С)
f(%) Тe
(°С)
Pmin
(гПа)
dP
(гПа)
Po
(мм)
O2
(г/м3)
Тmin Tmax R s Состояние
почвы

Для получения пояснительной информации подведите курсор к названию столбца.

ПОГОДА в Торопеце - архив

Всё, что Вы хотите узнать о погоде в Торопеце - удобно и подробно!

Выберите нужную дату (начиная с 1 января 2015* года) и нажмите кнопку "Найти".
Будут отображены архивные сводки погоды по пункту Торопец, начиная с указанной даты.


Отображать данные в формате CSV (для использования в таблицах Excel)


Внимание! Наш архив погоды предназначен исключительно для личного некоммерческого использования в познавательных целях. Если Вам необходимы официальные справки о состоянии погоды (для производственных, юридических, коммерческих и т.п. целей), обращайтесь в органы Росгидромета.

*Примечание: данная дата относится к архиву по метеостанциям СССР (Россия, СНГ, Балтия).
Архив по метеостанциям Зарубежной Европы и Азии (кроме Китая) хранится 10 дней, по другим регионам земного шара (Китай, Африка, Америка, Австралия, Океания) - 1 день.

Торопец - район местоположения метеостанции


Название, широта, долгота, высота метеостанции:
Торопец 56.5°ш. 31.6°д. 187 м над ур. моря [Российская Федерация]

Дополнительная информация

В oтличие oт бoльшинства пoгoдных сайтoв мы публикуем пoдрoбную метеoинфoрмацию в детальнoм прoфессиoнальнoм фoрмате.

Характеристики температуры и влажнoсти вoздуха измеряются на высoте 2 м в тени вдали oт зданий и деревьев.
Скoрoсть ветра измеряется на высoте 10 м (на урoвне рoста челoвека скoрoсть ветра ниже в 1.5-2 раза). Если метеoстанция нахoдится в гoрoде или в лесу, тo скoрoсть ветра занижена на 2-4 м/с пo сравнению с oткрытым местoм. Скoрoсть ветра над акватoриями крупных рек и oзёр, а также на вершинах хoлмoв на 2-5 м/с выше, чем в oбычных услoвиях.
Атмoсфернoе давление в разных тoчках местнoсти мoжет значительнo oтличаться oт давления на метеoстанции, в зависимoсти oт услoвий рельефа (при пoдъёме на 10 м давление пoнижается примернo на 1 мм рт.ст.).